VELOX-AM

导读 | 星芒AI

VELOX-AM 是一颗由新加坡科技设计大学(SUTD)主导开发的立方星,旨在验证先进卫星技术和自主导航系统。该卫星主要用于教育和研究,重点测试自主交会对接和姿态控制算法。其设计紧凑,采用模块化结构,便于未来升级和任务扩展。VELOX-AM 还具备图像采集能力,可用于地球观测和通信实验。该项目不仅推动了新加坡在航天领域的技术发展,也为学生提供了宝贵的工程实践机会。

基本信息
目录编号:
57482
目录名称:
VELOX-AM
国际标识:
2023-109B
轨道中心:
EARTH
卫星名称:
VELOX-AM
卫星全名:
--
卫星状态:
在轨 (已飞行869 天)
发射日期:
2023-07-30 UTC
国别 :
新加坡 (SG)
星等 :
--
轨道信息
数据来源 国际轨道数据
星历时间: 2024-01-11T11:19:00+0800
轨道信息已过期704天
半长轴: 6898.199km
偏心率: 0.0011546
轨道倾角: 5.005°
近地点辐角 327.628°
升交点赤经 110.976°
平近点角 32.312°
近地点: 512.099km
远地点: 528.029km
周期: 95.031分钟
每日圈数: 15.153022
详细信息
使用方式:
暂无
2D轨道图
3D轨道图
轨道高度分析图
轨道倾角分析图
轨道综合分析图
查看轨道综合分析图